Location: Unspecified
(0.0000°N, 0.0000°E)
Time: 13:22:24
(UTC+00:00)

Cosmos 44 - Visible Passes

Search period start: 20 July 2025 00:00
Search period end: 30 July 2025 00:00
Orbit: 586 x 765 km, 65.1° (Epoch: 19 July)

Date Brightness Start Highest point End Pass type
(mag) Time Alt. Az. Time Alt. Az. Time Alt. Az.
20 Jul 6.2 20:00:46 10° W 20:02:58 14° WNW 20:05:09 10° NW visible
21 Jul 3.4 18:53:13 10° SSW 18:57:35 66° WNW 19:01:49 10° NNE visible
22 Jul 6.8 05:31:08 10° NE 05:34:03 15° ENE 05:37:00 10° ESE visible
22 Jul 6.4 19:30:51 10° W 19:32:55 13° WNW 19:34:59 10° NW visible
24 Jul 6.7 05:00:59 10° NNE 05:04:00 16° ENE 05:07:04 10° ESE visible
24 Jul 6.6 19:00:56 10° W 19:02:52 13° WNW 19:04:47 10° NW visible
25 Jul 4.2 05:34:18 10° NNW 05:39:24 61° ENE 05:44:38 10° SSE visible
26 Jul 6.5 04:30:50 10° NNE 04:33:57 16° ENE 04:37:08 10° ESE visible
26 Jul 6.7 18:31:03 10° W 18:32:49 12° WNW 18:34:35 10° NW visible
27 Jul 4.0 05:04:14 10° NNW 05:09:21 63° ENE 05:14:36 10° SSE visible
28 Jul 6.3 04:00:41 10° NNE 04:03:54 17° ENE 04:07:11 10° ESE visible
28 Jul 4.2 05:40:09 10° NW 05:44:46 32° WSW 05:49:29 10° S visible
29 Jul 3.8 04:34:10 10° NNW 04:39:18 65° ENE 04:44:34 10° SSE visible
